Weather History for Lewisburg, WV

Change the Weather History Date:

Thursday, June 13, 2013

  Actual Average Record
Temperature  
Mean Temperature 65 °F 66 °F  
Max Temperature 73 °F 78 °F 86 °F (2000)
Min Temperature 57 °F 54 °F 42 °F (1980)
Degree Days  
Heating Degree Days 0    
Month to date heating degree days  
Since 1 June heating degree days  
Since 1 July heating degree days  
Cooling Degree Days 0    
Month to date cooling degree days  
Year to date cooling degree days  
Since 1 June cooling degree days  
Growing Degree Days 15 (Base 50)    
Moisture  
Dew Point 57 °F    
Average Humidity 79    
Maximum Humidity 94    
Minimum Humidity 63    
Precipitation  
Precipitation 0.31 in 0.12 in 0.31 in (2013)
Month to date precipitation 1.66  
Year to date precipitation 18.84  
Snow  
Snow 0.00 in - - ()
Month to date snowfall  
Since 1 June snowfall  
Since 1 July snowfall  
Snow Depth -    
Sea Level Pressure  
Sea Level Pressure 29.84 in    
Wind  
Wind Speed 4 mph (West)    
Max Wind Speed 16 mph    
Max Gust Speed 32 mph    
Visibility 9 miles    
Events Rain , Thunderstorm    
T = Trace of Precipitation, MM = Missing Value Source: NWS Daily Summary

Daily Weather History Graph

Daily Weather History Graph

Search for Another Location

Airport:

Trip Planner

Search our weather history database for the weather conditions in past years. The results will help you decide how hot, cold, wet, or windy it might be!

Date:

Astronomy

Jun. 13, 2013 Rise Set
Actual Time 5:58 AM EDT 8:44 PM EDT
Civil Twilight 5:27 AM EDT 9:16 PM EDT
Nautical Twilight 4:48 AM EDT 9:55 PM EDT
Astronomical Twilight 4:04 AM EDT 10:39 PM EDT
Moon 10:30 AM EDT (6/13) 11:55 PM EDT (6/13)
Length of Visible Light 15h 48m
Length of Day
14h 45m
Waxing Crescent, 21% of the Moon is Illuminated
Jun 13
Waxing Crescent
Jun 16
First Quarter
Jun 23
Full
Jun 30
Last Quarter
Jul 8
New

Hourly Weather History & Observations

Time (EDT) Temp. Dew Point Humidity Pressure Visibility Wind Dir Wind Speed Gust Speed Precip Events Conditions
12:15 AM 64.4 °F 60.8 °F 88% 29.96 in 2.5 mi Calm Calm - N/A   Scattered Clouds
12:35 AM 62.6 °F 60.8 °F 94% 29.97 in 7.0 mi Calm Calm - N/A   Scattered Clouds
12:55 AM 62.6 °F 60.8 °F 94% 29.96 in 5.0 mi Calm Calm - N/A   Scattered Clouds
1:15 AM 62.6 °F 60.8 °F 94% 29.97 in 7.0 mi Calm Calm - N/A   Clear
1:35 AM 60.8 °F 59.0 °F 94% 29.96 in 4.0 mi Calm Calm - N/A   Clear
1:55 AM 62.6 °F 60.8 °F 94% 29.96 in 7.0 mi Calm Calm - N/A   Clear
2:15 AM 62.6 °F 59.0 °F 88% 29.96 in 7.0 mi Calm Calm - N/A   Clear
2:35 AM 62.6 °F 59.0 °F 88% 29.95 in 7.0 mi Calm Calm - N/A   Clear
2:55 AM 62.6 °F 60.8 °F 94% 29.93 in 10.0 mi South 4.6 mph - N/A   Scattered Clouds
3:15 AM 62.6 °F 60.8 °F 94% 29.92 in 10.0 mi Calm Calm - N/A   Mostly Cloudy
3:35 AM 64.4 °F 60.8 °F 88% 29.91 in 10.0 mi South 3.5 mph - N/A   Overcast
3:55 AM 64.4 °F 60.8 °F 88% 29.90 in 10.0 mi South 4.6 mph - N/A   Mostly Cloudy
4:15 AM 66.2 °F 62.6 °F 88% 29.89 in 10.0 mi Calm Calm - N/A   Overcast
4:35 AM 64.4 °F 60.8 °F 88% 29.88 in 10.0 mi South 4.6 mph - N/A   Mostly Cloudy
4:55 AM 64.4 °F 60.8 °F 88% 29.88 in 10.0 mi South 3.5 mph - N/A   Mostly Cloudy
5:15 AM 64.4 °F 60.8 °F 88% 29.87 in 10.0 mi South 5.8 mph - N/A   Scattered Clouds
5:35 AM 64.4 °F 60.8 °F 88% 29.86 in 10.0 mi SSW 6.9 mph - N/A   Scattered Clouds
5:55 AM 64.4 °F 60.8 °F 88% 29.86 in 10.0 mi SSW 6.9 mph - N/A   Mostly Cloudy
6:15 AM 66.2 °F 60.8 °F 83% 29.84 in 10.0 mi SSW 5.8 mph - N/A   Scattered Clouds
6:35 AM 68.0 °F 60.8 °F 78% 29.86 in 10.0 mi WSW 9.2 mph - N/A   Mostly Cloudy
6:55 AM 68.0 °F 60.8 °F 78% 29.84 in 10.0 mi WSW 11.5 mph - N/A   Mostly Cloudy
7:15 AM 69.8 °F 60.8 °F 73% 29.84 in 10.0 mi WSW 9.2 mph 16.1 mph N/A   Mostly Cloudy
7:35 AM 69.8 °F 60.8 °F 73% 29.84 in 10.0 mi WSW 10.4 mph 17.3 mph N/A   Overcast
7:55 AM 69.8 °F 60.8 °F 73% 29.83 in 7.0 mi SW 9.2 mph 23.0 mph N/A   Mostly Cloudy
8:15 AM 69.8 °F 60.8 °F 73% 29.83 in 10.0 mi SW 9.2 mph - N/A   Mostly Cloudy
8:35 AM 69.8 °F 60.8 °F 73% 29.83 in 10.0 mi WSW 11.5 mph - N/A   Overcast
8:55 AM 69.8 °F 60.8 °F 73% 29.84 in 10.0 mi WSW 8.1 mph - N/A Thunderstorm Overcast
9:15 AM 71.6 °F 60.8 °F 69% 29.83 in 10.0 mi SW 8.1 mph - N/A   Overcast
9:35 AM 71.6 °F 60.8 °F 69% 29.82 in 10.0 mi SW 9.2 mph - N/A Thunderstorm Overcast
9:55 AM 71.6 °F 60.8 °F 69% 29.80 in 10.0 mi SW 8.1 mph - N/A Thunderstorm Overcast
10:15 AM 73.4 °F 60.8 °F 65% 29.81 in 10.0 mi WSW 12.7 mph 17.3 mph N/A   Overcast
10:35 AM 71.6 °F 60.8 °F 69% 29.79 in 10.0 mi WSW 10.4 mph 16.1 mph N/A Thunderstorm Overcast
10:55 AM 73.4 °F 60.8 °F 65% 29.79 in 10.0 mi WSW 11.5 mph 16.1 mph N/A   Overcast
11:15 AM 71.6 °F 60.8 °F 69% 29.77 in 10.0 mi WSW 10.4 mph - N/A Thunderstorm Thunderstorm
11:35 AM 71.6 °F 60.8 °F 69% 29.76 in 10.0 mi SSW 6.9 mph - N/A Thunderstorm Thunderstorm
11:55 AM 64.4 °F 59.0 °F 83% 29.77 in 7.0 mi North 11.5 mph 21.9 mph 0.01 in Rain , Thunderstorm Light Thunderstorms and Rain
12:15 PM 66.2 °F 60.8 °F 83% 29.79 in 10.0 mi Calm Calm - N/A Thunderstorm Overcast
12:35 PM 66.2 °F 59.0 °F 78% 29.76 in 10.0 mi Calm Calm - N/A Thunderstorm Unknown
12:55 PM 66.2 °F 60.8 °F 83% 29.75 in 10.0 mi South 3.5 mph - N/A Thunderstorm Scattered Clouds
1:15 PM 64.4 °F 59.0 °F 83% 29.75 in 2.5 mi West 8.1 mph 20.7 mph 0.21 in Rain , Thunderstorm Thunderstorms and Rain
1:35 PM 64.4 °F 57.2 °F 77% 29.75 in 10.0 mi WSW 5.8 mph - 0.23 in Thunderstorm Mostly Cloudy
1:55 PM 66.2 °F 59.0 °F 78% 29.82 in 10.0 mi WNW 16.1 mph 32.2 mph 0.26 in Thunderstorm Mostly Cloudy
2:35 PM 60.8 °F 55.4 °F 82% 29.77 in 10.0 mi West 6.9 mph - 0.04 in Rain , Thunderstorm Light Thunderstorms and Rain
2:55 PM 60.8 °F 55.4 °F 82% 29.77 in 10.0 mi WSW 6.9 mph - 0.04 in   Mostly Cloudy
3:15 PM 60.8 °F 55.4 °F 82% 29.78 in 10.0 mi SW 4.6 mph - N/A Thunderstorm Mostly Cloudy
3:35 PM 60.8 °F 55.4 °F 82% 29.79 in 10.0 mi SW 8.1 mph - N/A   Mostly Cloudy
3:55 PM 60.8 °F 55.4 °F 82% 29.78 in 10.0 mi WSW 5.8 mph - N/A   Overcast
4:15 PM 60.8 °F 55.4 °F 82% 29.76 in 5.0 mi WNW 5.8 mph - N/A Rain Light Rain
4:35 PM 62.6 °F 57.2 °F 82% 29.75 in 10.0 mi WNW 9.2 mph - N/A   Overcast
4:55 PM 64.4 °F 55.4 °F 73% 29.75 in 10.0 mi NW 6.9 mph - N/A   Mostly Cloudy
5:15 PM 64.4 °F 55.4 °F 73% 29.75 in 10.0 mi WNW 12.7 mph 18.4 mph N/A   Mostly Cloudy
5:35 PM 64.4 °F 55.4 °F 73% 29.76 in 10.0 mi NW 8.1 mph 24.2 mph N/A   Overcast
5:55 PM 64.4 °F 55.4 °F 73% 29.76 in 10.0 mi West 6.9 mph 16.1 mph N/A   Overcast
6:15 PM 62.6 °F 55.4 °F 77% 29.77 in 7.0 mi NW 5.8 mph - N/A   Overcast
6:35 PM 60.8 °F 55.4 °F 82% 29.77 in 3.0 mi West 4.6 mph - N/A   Drizzle
6:55 PM 60.8 °F 57.2 °F 88% 29.77 in 10.0 mi West 9.2 mph - N/A   Overcast
7:15 PM 60.8 °F 57.2 °F 88% 29.79 in 5.0 mi NNW 8.1 mph - N/A   Light Drizzle
7:35 PM 60.8 °F 53.6 °F 77% 29.80 in 10.0 mi NNW 10.4 mph - N/A   Overcast
7:55 PM 60.8 °F 51.8 °F 72% 29.81 in 10.0 mi North 13.8 mph 23.0 mph N/A   Overcast
8:15 PM 60.8 °F 51.8 °F 72% 29.83 in 10.0 mi North 11.5 mph 19.6 mph N/A   Overcast
8:35 PM 59.0 °F 50.0 °F 72% 29.84 in 10.0 mi NNW 6.9 mph 19.6 mph N/A   Mostly Cloudy
8:55 PM 59.0 °F 50.0 °F 72% 29.85 in 10.0 mi North 3.5 mph - N/A   Mostly Cloudy
9:15 PM 59.0 °F 50.0 °F 72% 29.86 in 10.0 mi NW 3.5 mph - N/A   Mostly Cloudy
9:35 PM 57.2 °F 48.2 °F 72% 29.86 in 10.0 mi NNW 5.8 mph 17.3 mph N/A   Scattered Clouds
9:55 PM 57.2 °F 46.4 °F 67% 29.87 in 10.0 mi NW 3.5 mph - N/A   Scattered Clouds
10:15 PM 57.2 °F 46.4 °F 67% 29.88 in 10.0 mi Calm Calm - N/A   Mostly Cloudy
10:35 PM 57.2 °F 46.4 °F 67% 29.88 in 10.0 mi NNW 3.5 mph - N/A   Overcast
10:55 PM 59.0 °F 46.4 °F 63% 29.88 in 10.0 mi NW 3.5 mph - N/A   Mostly Cloudy
11:15 PM 59.0 °F 46.4 °F 63% 29.88 in 10.0 mi Calm Calm - N/A   Mostly Cloudy
11:35 PM 59.0 °F 46.4 °F 63% 29.89 in 10.0 mi North 3.5 mph - N/A   Mostly Cloudy
11:55 PM 59.0 °F 46.4 °F 63% 29.89 in 10.0 mi North 5.8 mph - N/A   Overcast